Location: Middle Street
(51.7167°N, 0.0333°E)
Time: 20:00:24
(UTC+00:00)

CSL-04 Rocket - Pass Details

Date: 20 January 2021
Orbit: 806 x 860 km, 98.9° (Epoch: 27 February)

Event Time Altitude Azimuth Distance (km) Brightness Sun altitude
Rises 18:32:50 0° 153° (SSE) 3,356 6.6 -18.8°
Reaches altitude 10° 18:35:11 10° 150° (SSE) 2,435 5.9 -19.2°
Maximum altitude 18:40:31 67° 69° (ENE) 914 3.6 -20.0°
Drops below altitude 10° 18:45:59 10° 349° (NNW) 2,486 6.2 -20.9°
Sets 18:48:23 0° 346° (NNW) 3,432 7.0 -21.2°
